Time,TemperatureF,DewpointF,PressureIn,WindDirection,WindDirectionDegrees,WindSpeedMPH,WindSpeedGustMPH,Humidity,HourlyPrecipIn,Conditions,Clouds,dailyrainin,SoftwareType,DateUTC
2013-04-17 00:00:00,65.5,56.3,29.97,SSW,203,0.4,0.7,72,0.00,,,0.00,WUHU216HW,2013-04-17 04:00:00,
2013-04-17 00:05:00,65.5,56.3,29.97,SW,225,1.3,1.3,72,0.00,,,0.00,WUHU216HW,2013-04-17 04:05:00,
2013-04-17 00:10:00,65.7,56.4,29.97,SW,225,0.0,1.3,72,0.00,,,0.00,WUHU216HW,2013-04-17 04:10:00,
2013-04-17 00:15:00,65.9,56.6,29.97,NNE,23,0.4,1.3,72,0.00,,,0.00,WUHU216HW,2013-04-17 04:15:00,
2013-04-17 00:20:00,65.9,56.6,29.97,NNE,23,0.0,0.7,72,0.00,,,0.00,WUHU216HW,2013-04-17 04:20:00,
2013-04-17 00:25:00,65.9,56.6,29.96,NE,45,0.4,0.4,72,0.00,,,0.00,WUHU216HW,2013-04-17 04:25:00,
2013-04-17 00:30:00,65.9,56.6,29.97,SW,225,0.7,0.7,72,0.00,,,0.00,WUHU216HW,2013-04-17 04:30:00,
2013-04-17 00:35:00,65.9,56.6,29.97,SW,225,0.0,0.7,72,0.00,,,0.00,WUHU216HW,2013-04-17 04:35:00,
2013-04-17 00:40:00,65.9,56.6,29.97,SSE,158,0.0,0.7,72,0.00,,,0.00,WUHU216HW,2013-04-17 04:40:00,
2013-04-17 00:45:00,65.9,56.6,29.97,SSW,203,0.2,0.4,72,0.00,,,0.00,WUHU216HW,2013-04-17 04:45:00,
2013-04-17 00:50:00,66.1,56.8,29.97,ENE,68,0.0,0.4,72,0.00,,,0.00,WUHU216HW,2013-04-17 04:50:00,
2013-04-17 00:55:00,66.1,56.8,29.96,SW,225,1.1,1.1,72,0.00,,,0.00,WUHU216HW,2013-04-17 04:55:00,
2013-04-17 01:00:00,66.1,56.3,29.96,SSW,203,0.0,1.1,71,0.00,,,0.00,WUHU216HW,2013-04-17 05:00:00,
2013-04-17 01:05:00,66.1,56.8,29.96,NE,45,0.4,1.1,72,0.00,,,0.00,WUHU216HW,2013-04-17 05:05:00,
2013-04-17 01:10:00,65.9,56.3,29.96,South,180,0.0,0.7,71,0.00,,,0.00,WUHU216HW,2013-04-17 05:10:00,
2013-04-17 01:15:00,65.9,56.3,29.96,South,180,0.0,0.7,71,0.00,,,0.00,WUHU216HW,2013-04-17 05:15:00,
2013-04-17 01:20:00,65.9,56.3,29.96,South,180,0.0,0.0,71,0.00,,,0.00,WUHU216HW,2013-04-17 05:20:00,
2013-04-17 01:25:00,65.7,56.1,29.96,SSW,203,0.0,0.4,71,0.00,,,0.00,WUHU216HW,2013-04-17 05:25:00,
2013-04-17 01:30:00,65.5,56.3,29.96,SW,225,0.2,0.4,72,0.00,,,0.00,WUHU216HW,2013-04-17 05:30:00,
2013-04-17 01:35:00,65.5,56.3,29.96,SW,225,0.9,1.3,72,0.00,,,0.00,WUHU216HW,2013-04-17 05:35:00,
2013-04-17 01:40:00,65.5,56.3,29.96,SW,225,0.0,1.3,72,0.00,,,0.00,WUHU216HW,2013-04-17 05:40:00,
2013-04-17 01:45:00,65.5,56.3,29.96,SW,225,0.4,1.3,72,0.00,,,0.00,WUHU216HW,2013-04-17 05:45:00,
2013-04-17 01:50:00,65.3,56.1,29.96,SW,225,1.1,1.3,72,0.00,,,0.00,WUHU216HW,2013-04-17 05:50:00,
2013-04-17 01:55:00,65.2,55.9,29.96,SW,225,0.0,1.1,72,0.00,,,0.00,WUHU216HW,2013-04-17 05:55:00,
2013-04-17 02:00:00,65.2,55.9,29.96,SW,225,0.0,0.7,72,0.00,,,0.00,WUHU216HW,2013-04-17 06:00:00,
2013-04-17 02:05:00,65.2,56.3,29.96,WSW,248,0.2,1.1,73,0.00,,,0.00,WUHU216HW,2013-04-17 06:05:00,
2013-04-17 02:10:00,65.2,56.3,29.96,NNE,23,0.0,1.1,73,0.00,,,0.00,WUHU216HW,2013-04-17 06:10:00,
2013-04-17 02:15:00,65.3,56.4,29.96,SSW,203,0.0,1.8,73,0.00,,,0.00,WUHU216HW,2013-04-17 06:15:00,
2013-04-17 02:20:00,65.5,56.3,29.96,NNE,23,0.0,1.8,72,0.00,,,0.00,WUHU216HW,2013-04-17 06:20:00,
2013-04-17 02:25:00,65.5,56.3,29.96,NNE,23,0.0,0.4,72,0.00,,,0.00,WUHU216HW,2013-04-17 06:25:00,
2013-04-17 02:30:00,65.3,56.1,29.96,SW,225,0.0,1.3,72,0.00,,,0.00,WUHU216HW,2013-04-17 06:30:00,
2013-04-17 02:35:00,65.2,55.9,29.96,SSW,203,0.4,1.3,72,0.00,,,0.00,WUHU216HW,2013-04-17 06:35:00,
2013-04-17 02:40:00,65.3,56.1,29.96,South,180,0.4,1.1,72,0.00,,,0.00,WUHU216HW,2013-04-17 06:40:00,
2013-04-17 02:45:00,65.2,55.9,29.96,South,180,0.0,0.7,72,0.00,,,0.00,WUHU216HW,2013-04-17 06:45:00,
2013-04-17 02:50:00,65.2,55.9,29.96,SSE,158,0.0,0.4,72,0.00,,,0.00,WUHU216HW,2013-04-17 06:50:00,
2013-04-17 02:55:00,65.2,55.9,29.96,SSW,203,0.7,1.1,72,0.00,,,0.00,WUHU216HW,2013-04-17 06:55:00,
2013-04-17 03:00:00,65.0,55.8,29.96,SW,225,0.0,1.1,72,0.00,,,0.00,WUHU216HW,2013-04-17 07:00:00,
2013-04-17 03:05:00,64.8,55.6,29.96,SW,225,0.0,0.9,72,0.00,,,0.00,WUHU216HW,2013-04-17 07:05:00,
2013-04-17 03:10:00,64.8,55.6,29.96,SW,225,0.0,0.0,72,0.00,,,0.00,WUHU216HW,2013-04-17 07:10:00,
2013-04-17 03:15:00,64.6,55.8,29.96,SW,225,0.0,0.0,73,0.00,,,0.00,WUHU216HW,2013-04-17 07:15:00,
2013-04-17 03:20:00,64.6,55.8,29.96,NNE,23,0.0,0.4,73,0.00,,,0.00,WUHU216HW,2013-04-17 07:20:00,
2013-04-17 03:25:00,64.4,55.6,29.96,NE,45,0.4,1.1,73,0.00,,,0.00,WUHU216HW,2013-04-17 07:25:00,
2013-04-17 03:30:00,64.4,56.0,29.96,ENE,68,0.0,1.1,74,0.00,,,0.00,WUHU216HW,2013-04-17 07:30:00,
2013-04-17 03:35:00,64.4,56.0,29.96,NE,45,0.4,0.9,74,0.00,,,0.00,WUHU216HW,2013-04-17 07:35:00,
2013-04-17 03:40:00,64.6,56.2,29.96,ENE,68,0.0,1.1,74,0.00,,,0.00,WUHU216HW,2013-04-17 07:40:00,
2013-04-17 03:45:00,64.8,56.4,29.96,ENE,68,0.0,1.1,74,0.00,,,0.00,WUHU216HW,2013-04-17 07:45:00,
2013-04-17 03:50:00,64.8,56.4,29.96,ENE,68,0.0,0.0,74,0.00,,,0.00,WUHU216HW,2013-04-17 07:50:00,
2013-04-17 03:55:00,64.8,56.0,29.96,ENE,68,0.0,0.0,73,0.00,,,0.00,WUHU216HW,2013-04-17 07:55:00,
2013-04-17 04:00:00,64.8,56.0,29.96,ENE,68,0.0,0.0,73,0.00,,,0.00,WUHU216HW,2013-04-17 08:00:00,
2013-04-17 04:05:00,64.8,56.0,29.96,South,180,0.0,0.0,73,0.00,,,0.00,WUHU216HW,2013-04-17 08:05:00,
2013-04-17 04:10:00,64.8,56.0,29.96,South,180,0.0,0.0,73,0.00,,,0.00,WUHU216HW,2013-04-17 08:10:00,
2013-04-17 04:15:00,64.8,56.0,29.96,SSW,203,0.0,0.0,73,0.00,,,0.00,WUHU216HW,2013-04-17 08:15:00,
2013-04-17 04:20:00,64.8,56.0,29.96,SW,225,0.0,1.3,73,0.00,,,0.00,WUHU216HW,2013-04-17 08:20:00,
2013-04-17 04:25:00,64.8,56.0,29.96,SW,225,0.0,1.3,73,0.00,,,0.00,WUHU216HW,2013-04-17 08:25:00,
2013-04-17 04:30:00,64.6,55.8,29.96,SW,225,0.0,0.0,73,0.00,,,0.00,WUHU216HW,2013-04-17 08:30:00,
2013-04-17 04:35:00,64.6,55.8,29.96,SW,225,0.0,0.0,73,0.00,,,0.00,WUHU216HW,2013-04-17 08:35:00,
2013-04-17 04:40:00,64.4,56.0,29.96,SW,225,0.0,0.2,74,0.00,,,0.00,WUHU216HW,2013-04-17 08:40:00,
2013-04-17 04:45:00,64.4,56.0,29.96,SW,225,0.0,0.2,74,0.00,,,0.00,WUHU216HW,2013-04-17 08:45:00,
2013-04-17 04:50:00,64.4,56.0,29.96,NNE,23,0.0,0.9,74,0.00,,,0.00,WUHU216HW,2013-04-17 08:50:00,
2013-04-17 04:55:00,64.4,56.0,29.96,NNE,23,0.0,0.9,74,0.00,,,0.00,WUHU216HW,2013-04-17 08:55:00,
2013-04-17 05:00:00,64.4,56.0,29.96,NNE,23,0.0,0.0,74,0.00,,,0.00,WUHU216HW,2013-04-17 09:00:00,
2013-04-17 05:05:00,64.4,56.0,29.96,NNE,23,0.0,0.4,74,0.00,,,0.00,WUHU216HW,2013-04-17 09:05:00,
2013-04-17 05:10:00,64.6,56.2,29.96,NE,45,0.0,0.4,74,0.00,,,0.00,WUHU216HW,2013-04-17 09:10:00,
2013-04-17 05:15:00,64.4,56.0,29.96,SW,225,1.1,1.1,74,0.00,,,0.00,WUHU216HW,2013-04-17 09:15:00,
2013-04-17 05:20:00,64.4,56.0,29.96,ENE,68,0.0,1.1,74,0.00,,,0.00,WUHU216HW,2013-04-17 09:20:00,
2013-04-17 05:25:00,64.4,56.0,29.96,West,270,0.4,1.1,74,0.00,,,0.00,WUHU216HW,2013-04-17 09:25:00,
2013-04-17 05:30:00,64.4,56.0,29.96,NNE,23,0.0,0.9,74,0.00,,,0.00,WUHU216HW,2013-04-17 09:30:00,
2013-04-17 05:35:00,64.4,56.0,29.96,SW,225,0.0,0.4,74,0.00,,,0.00,WUHU216HW,2013-04-17 09:35:00,
2013-04-17 05:40:00,64.4,56.0,29.96,SW,225,0.4,0.7,74,0.00,,,0.00,WUHU216HW,2013-04-17 09:40:00,
2013-04-17 05:45:00,64.6,56.2,29.96,SW,225,0.0,1.1,74,0.00,,,0.00,WUHU216HW,2013-04-17 09:45:00,
2013-04-17 05:50:00,64.6,56.2,29.96,WNW,293,0.0,1.1,74,0.00,,,0.00,WUHU216HW,2013-04-17 09:50:00,
2013-04-17 05:55:00,64.6,56.2,29.96,NW,315,0.0,0.2,74,0.00,,,0.00,WUHU216HW,2013-04-17 09:55:00,
2013-04-17 06:00:00,64.4,56.0,29.96,SW,225,0.0,0.2,74,0.00,,,0.00,WUHU216HW,2013-04-17 10:00:00,
2013-04-17 06:05:00,64.4,56.0,29.96,SW,225,0.4,0.4,74,0.00,,,0.00,WUHU216HW,2013-04-17 10:05:00,
2013-04-17 06:10:00,64.1,55.6,29.96,NE,45,0.0,0.4,74,0.00,,,0.00,WUHU216HW,2013-04-17 10:10:00,
2013-04-17 06:15:00,64.1,55.6,29.96,NE,45,0.0,0.4,74,0.00,,,0.00,WUHU216HW,2013-04-17 10:15:00,
2013-04-17 06:20:00,63.9,55.4,29.96,NE,45,0.0,0.0,74,0.00,,,0.00,WUHU216HW,2013-04-17 10:20:00,
2013-04-17 06:25:00,63.7,55.3,29.96,NE,45,0.0,0.0,74,0.00,,,0.00,WUHU216HW,2013-04-17 10:25:00,
2013-04-17 06:30:00,63.5,55.1,29.96,NE,45,0.0,0.0,74,0.00,,,0.00,WUHU216HW,2013-04-17 10:30:00,
2013-04-17 06:35:00,63.4,55.3,29.96,SSW,203,0.0,0.7,75,0.00,,,0.00,WUHU216HW,2013-04-17 10:35:00,
2013-04-17 06:40:00,63.4,55.3,29.96,SW,225,0.4,0.7,75,0.00,,,0.00,WUHU216HW,2013-04-17 10:40:00,
2013-04-17 06:45:00,63.4,55.3,29.96,South,180,1.1,1.1,75,0.00,,,0.00,WUHU216HW,2013-04-17 10:45:00,
2013-04-17 06:50:00,63.2,55.1,29.96,SE,135,0.0,1.1,75,0.00,,,0.00,WUHU216HW,2013-04-17 10:50:00,
2013-04-17 06:55:00,63.0,55.3,29.97,ENE,68,0.0,1.1,76,0.00,,,0.00,WUHU216HW,2013-04-17 10:55:00,
2013-04-17 07:00:00,62.8,55.1,29.97,SSW,203,0.0,1.1,76,0.00,,,0.00,WUHU216HW,2013-04-17 11:00:00,
2013-04-17 07:05:00,62.6,54.5,29.97,SW,225,0.0,1.1,75,0.00,,,0.00,WUHU216HW,2013-04-17 11:05:00,
2013-04-17 07:10:00,62.6,54.9,29.97,SW,225,0.0,0.2,76,0.00,,,0.00,WUHU216HW,2013-04-17 11:10:00,
2013-04-17 07:15:00,62.6,54.9,29.97,SSW,203,0.0,0.9,76,0.00,,,0.00,WUHU216HW,2013-04-17 11:15:00,
2013-04-17 07:20:00,62.8,55.1,29.98,SW,225,0.0,0.9,76,0.00,,,0.00,WUHU216HW,2013-04-17 11:20:00,
2013-04-17 07:25:00,62.8,55.1,29.98,SW,225,0.0,0.0,76,0.00,,,0.00,WUHU216HW,2013-04-17 11:25:00,
2013-04-17 07:30:00,63.0,55.3,29.98,WSW,248,0.0,0.0,76,0.00,,,0.00,WUHU216HW,2013-04-17 11:30:00,
2013-04-17 07:35:00,63.4,55.6,29.98,North,0,0.7,0.9,76,0.00,,,0.00,WUHU216HW,2013-04-17 11:35:00,
2013-04-17 07:40:00,63.7,56.3,29.98,North,0,0.0,0.9,77,0.00,,,0.00,WUHU216HW,2013-04-17 11:40:00,
2013-04-17 07:45:00,63.9,56.5,29.98,WSW,248,0.7,0.7,77,0.00,,,0.00,WUHU216HW,2013-04-17 11:45:00,
2013-04-17 07:50:00,64.3,56.5,29.98,WSW,248,0.0,0.7,76,0.00,,,0.00,WUHU216HW,2013-04-17 11:50:00,
2013-04-17 07:55:00,64.4,56.7,29.99,WSW,248,0.0,0.7,76,0.00,,,0.00,WUHU216HW,2013-04-17 11:55:00,
2013-04-17 08:00:00,64.8,56.7,29.99,North,0,0.4,0.4,75,0.00,,,0.00,WUHU216HW,2013-04-17 12:00:00,
2013-04-17 08:05:00,65.0,56.9,29.99,North,0,0.0,0.4,75,0.00,,,0.00,WUHU216HW,2013-04-17 12:05:00,
2013-04-17 08:10:00,65.2,57.1,29.99,North,0,0.0,0.4,75,0.00,,,0.00,WUHU216HW,2013-04-17 12:10:00,
2013-04-17 08:15:00,65.5,57.0,29.98,North,0,0.0,0.4,74,0.00,,,0.00,WUHU216HW,2013-04-17 12:15:00,
2013-04-17 08:20:00,65.9,57.3,29.99,NNW,338,0.0,0.0,74,0.00,,,0.00,WUHU216HW,2013-04-17 12:20:00,
2013-04-17 08:25:00,66.2,57.7,29.98,North,0,0.4,0.4,74,0.00,,,0.00,WUHU216HW,2013-04-17 12:25:00,
2013-04-17 08:30:00,66.6,57.7,29.99,North,0,0.0,0.4,73,0.00,,,0.00,WUHU216HW,2013-04-17 12:30:00,
2013-04-17 08:35:00,67.0,58.1,29.99,SW,225,0.0,0.4,73,0.00,,,0.00,WUHU216HW,2013-04-17 12:35:00,
2013-04-17 08:40:00,67.1,57.8,29.99,SW,225,0.0,0.4,72,0.00,,,0.00,WUHU216HW,2013-04-17 12:40:00,
2013-04-17 08:45:00,67.5,58.1,29.99,SSW,203,0.2,1.1,72,0.00,,,0.00,WUHU216HW,2013-04-17 12:45:00,
2013-04-17 08:50:00,67.9,58.1,29.99,ENE,68,0.0,1.1,71,0.00,,,0.00,WUHU216HW,2013-04-17 12:50:00,
2013-04-17 08:55:00,68.0,58.0,29.99,NE,45,0.0,1.1,70,0.00,,,0.00,WUHU216HW,2013-04-17 12:55:00,
2013-04-17 09:00:00,68.0,58.0,29.99,NE,45,0.0,0.9,70,0.00,,,0.00,WUHU216HW,2013-04-17 13:00:00,
2013-04-17 09:05:00,68.4,58.3,29.99,West,270,0.0,0.7,70,0.00,,,0.00,WUHU216HW,2013-04-17 13:05:00,
2013-04-17 09:10:00,68.6,58.4,29.99,NNE,23,0.0,1.1,70,0.00,,,0.00,WUHU216HW,2013-04-17 13:10:00,
2013-04-17 09:15:00,68.9,58.8,29.99,NNW,338,0.0,1.1,70,0.00,,,0.00,WUHU216HW,2013-04-17 13:15:00,
2013-04-17 09:20:00,69.1,58.5,29.99,WNW,293,0.2,0.4,69,0.00,,,0.00,WUHU216HW,2013-04-17 13:20:00,
2013-04-17 09:25:00,69.5,58.9,29.99,WNW,293,0.4,0.9,69,0.00,,,0.00,WUHU216HW,2013-04-17 13:25:00,
2013-04-17 09:30:00,68.9,58.0,29.99,NNE,23,0.4,1.3,68,0.00,,,0.00,WUHU216HW,2013-04-17 13:30:00,
2013-04-17 09:35:00,68.8,58.1,29.99,WNW,293,0.4,1.3,69,0.00,,,0.00,WUHU216HW,2013-04-17 13:35:00,
2013-04-17 09:40:00,68.6,58.4,29.99,SSW,203,1.3,1.3,70,0.00,,,0.00,WUHU216HW,2013-04-17 13:40:00,
2013-04-17 09:45:00,68.9,58.8,29.99,SW,225,0.2,1.8,70,0.00,,,0.00,WUHU216HW,2013-04-17 13:45:00,
2013-04-17 09:50:00,69.5,59.2,29.99,SSE,158,0.4,1.8,70,0.00,,,0.00,WUHU216HW,2013-04-17 13:50:00,
2013-04-17 09:55:00,70.2,59.9,29.99,ENE,68,0.0,1.3,70,0.00,,,0.00,WUHU216HW,2013-04-17 13:55:00,
2013-04-17 10:00:00,70.2,59.1,29.99,NE,45,2.0,2.0,68,0.00,,,0.00,WUHU216HW,2013-04-17 14:00:00,
2013-04-17 10:05:00,70.0,59.3,29.99,NNE,23,0.4,2.0,69,0.00,,,0.00,WUHU216HW,2013-04-17 14:05:00,
2013-04-17 10:10:00,70.0,59.3,29.99,NE,45,0.0,2.5,69,0.00,,,0.00,WUHU216HW,2013-04-17 14:10:00,
2013-04-17 10:15:00,70.0,59.3,29.98,NE,45,0.0,2.5,69,0.00,,,0.00,WUHU216HW,2013-04-17 14:15:00,
2013-04-17 10:20:00,70.2,59.5,29.98,North,0,0.4,2.7,69,0.00,,,0.00,WUHU216HW,2013-04-17 14:20:00,
2013-04-17 10:25:00,70.4,59.3,29.98,West,270,1.1,2.7,68,0.00,,,0.00,WUHU216HW,2013-04-17 14:25:00,
2013-04-17 10:30:00,70.6,59.5,29.98,North,0,1.3,1.6,68,0.00,,,0.00,WUHU216HW,2013-04-17 14:30:00,
2013-04-17 10:35:00,70.7,59.2,29.97,NE,45,2.2,2.2,67,0.00,,,0.00,WUHU216HW,2013-04-17 14:35:00,
2013-04-17 10:40:00,70.9,59.4,29.97,SSW,203,0.0,2.2,67,0.00,,,0.00,WUHU216HW,2013-04-17 14:40:00,
2013-04-17 10:45:00,70.7,58.8,29.97,NNE,23,0.9,2.2,66,0.00,,,0.00,WUHU216HW,2013-04-17 14:45:00,
2013-04-17 10:50:00,70.6,58.6,29.97,NNE,23,3.1,3.1,66,0.00,,,0.00,WUHU216HW,2013-04-17 14:50:00,
2013-04-17 10:55:00,70.7,59.2,29.97,West,270,1.3,3.1,67,0.00,,,0.00,WUHU216HW,2013-04-17 14:55:00,
2013-04-17 11:00:00,71.1,59.1,29.97,NNW,338,1.3,3.4,66,0.00,,,0.00,WUHU216HW,2013-04-17 15:00:00,
2013-04-17 11:05:00,71.8,59.9,29.97,North,0,2.5,3.4,66,0.00,,,0.00,WUHU216HW,2013-04-17 15:05:00,
2013-04-17 11:10:00,72.0,60.0,29.97,East,90,0.2,3.4,66,0.00,,,0.00,WUHU216HW,2013-04-17 15:10:00,
2013-04-17 11:15:00,72.4,59.5,29.97,NE,45,2.5,3.4,64,0.00,,,0.00,WUHU216HW,2013-04-17 15:15:00,
2013-04-17 11:20:00,72.5,60.0,29.97,West,270,1.1,2.7,65,0.00,,,0.00,WUHU216HW,2013-04-17 15:20:00,
2013-04-17 11:25:00,73.1,59.7,29.98,North,0,0.9,4.7,63,0.00,,,0.00,WUHU216HW,2013-04-17 15:25:00,
2013-04-17 11:30:00,73.3,59.4,29.97,ENE,68,4.0,4.7,62,0.00,,,0.00,WUHU216HW,2013-04-17 15:30:00,
2013-04-17 11:35:00,73.1,59.2,29.97,North,0,2.7,4.7,62,0.00,,,0.00,WUHU216HW,2013-04-17 15:35:00,
2013-04-17 11:40:00,73.1,59.2,29.97,NE,45,5.6,5.6,62,0.00,,,0.00,WUHU216HW,2013-04-17 15:40:00,
2013-04-17 11:45:00,72.9,59.0,29.97,NE,45,2.7,5.6,62,0.00,,,0.00,WUHU216HW,2013-04-17 15:45:00,
2013-04-17 11:50:00,72.9,59.0,29.97,NE,45,6.0,6.0,62,0.00,,,0.00,WUHU216HW,2013-04-17 15:50:00,
2013-04-17 11:55:00,73.1,59.2,29.97,NNE,23,3.4,6.0,62,0.00,,,0.00,WUHU216HW,2013-04-17 15:55:00,
2013-04-17 12:00:00,73.1,59.2,29.97,WNW,293,0.7,6.9,62,0.00,,,0.00,WUHU216HW,2013-04-17 16:00:00,
2013-04-17 12:05:00,73.4,59.1,29.97,NE,45,3.8,6.9,61,0.00,,,0.00,WUHU216HW,2013-04-17 16:05:00,
2013-04-17 12:10:00,73.8,59.5,29.97,NE,45,2.2,4.3,61,0.00,,,0.00,WUHU216HW,2013-04-17 16:10:00,
2013-04-17 12:15:00,74.0,59.2,29.97,NNE,23,3.8,4.3,60,0.00,,,0.00,WUHU216HW,2013-04-17 16:15:00,
2013-04-17 12:20:00,74.3,59.6,29.97,NNE,23,3.8,3.8,60,0.00,,,0.00,WUHU216HW,2013-04-17 16:20:00,
2013-04-17 12:25:00,74.7,59.9,29.97,NW,315,2.0,4.7,60,0.00,,,0.00,WUHU216HW,2013-04-17 16:25:00,
2013-04-17 12:30:00,75.2,59.9,29.96,NNE,23,2.0,4.7,59,0.00,,,0.00,WUHU216HW,2013-04-17 16:30:00,
2013-04-17 12:35:00,75.8,59.9,29.96,SW,225,2.0,3.8,58,0.00,,,0.00,WUHU216HW,2013-04-17 16:35:00,
2013-04-17 12:40:00,75.2,59.5,29.96,NE,45,2.7,6.5,58,0.00,,,0.00,WUHU216HW,2013-04-17 16:40:00,
2013-04-17 12:45:00,74.9,59.6,29.96,NNE,23,2.2,6.5,59,0.00,,,0.00,WUHU216HW,2013-04-17 16:45:00,
2013-04-17 12:50:00,74.7,59.4,29.96,NNE,23,4.0,5.1,59,0.00,,,0.00,WUHU216HW,2013-04-17 16:50:00,
2013-04-17 12:55:00,74.5,59.2,29.96,North,0,1.1,7.2,59,0.00,,,0.00,WUHU216HW,2013-04-17 16:55:00,
2013-04-17 13:00:00,75.1,60.3,29.95,WNW,293,0.2,7.2,60,0.00,,,0.00,WUHU216HW,2013-04-17 17:00:00,
2013-04-17 13:05:00,76.1,60.8,29.95,North,0,0.2,4.5,59,0.00,,,0.00,WUHU216HW,2013-04-17 17:05:00,
2013-04-17 13:10:00,76.9,60.0,29.95,South,180,3.4,4.5,56,0.00,,,0.00,WUHU216HW,2013-04-17 17:10:00,
2013-04-17 13:15:00,76.7,59.2,29.95,SW,225,1.6,4.5,55,0.00,,,0.00,WUHU216HW,2013-04-17 17:15:00,
2013-04-17 13:20:00,76.7,59.8,29.94,SSW,203,1.1,3.4,56,0.00,,,0.00,WUHU216HW,2013-04-17 17:20:00,
2013-04-17 13:25:00,77.0,59.6,29.94,East,90,1.3,3.1,55,0.00,,,0.00,WUHU216HW,2013-04-17 17:25:00,
2013-04-17 13:30:00,77.4,59.4,29.93,NNE,23,4.0,4.0,54,0.00,,,0.00,WUHU216HW,2013-04-17 17:30:00,
2013-04-17 13:35:00,77.0,60.1,29.93,NNE,23,1.1,4.7,56,0.00,,,0.00,WUHU216HW,2013-04-17 17:35:00,
2013-04-17 13:40:00,77.8,59.8,29.93,NE,45,4.3,4.7,54,0.00,,,0.00,WUHU216HW,2013-04-17 17:40:00,
2013-04-17 13:45:00,77.8,59.2,29.93,NE,45,0.9,4.3,53,0.00,,,0.00,WUHU216HW,2013-04-17 17:45:00,
2013-04-17 13:50:00,77.4,59.4,29.92,SSW,203,1.8,4.3,54,0.00,,,0.00,WUHU216HW,2013-04-17 17:50:00,
2013-04-17 13:55:00,77.9,59.4,29.92,NE,45,3.4,4.3,53,0.00,,,0.00,WUHU216HW,2013-04-17 17:55:00,
2013-04-17 14:00:00,77.8,58.8,29.92,NE,45,5.1,5.1,52,0.00,,,0.00,WUHU216HW,2013-04-17 18:00:00,
2013-04-17 14:05:00,77.6,59.0,29.92,East,90,1.8,5.1,53,0.00,,,0.00,WUHU216HW,2013-04-17 18:05:00,
2013-04-17 14:10:00,78.5,59.4,29.92,NNE,23,1.8,5.1,52,0.00,,,0.00,WUHU216HW,2013-04-17 18:10:00,
2013-04-17 14:15:00,79.0,59.4,29.91,NNE,23,1.3,3.4,51,0.00,,,0.00,WUHU216HW,2013-04-17 18:15:00,
2013-04-17 14:20:00,79.4,59.1,29.91,NNE,23,1.8,3.4,50,0.00,,,0.00,WUHU216HW,2013-04-17 18:20:00,
2013-04-17 14:25:00,79.4,59.1,29.91,East,90,2.5,3.4,50,0.00,,,0.00,WUHU216HW,2013-04-17 18:25:00,
2013-04-17 14:30:00,79.0,58.9,29.91,SW,225,1.8,5.4,50,0.00,,,0.00,WUHU216HW,2013-04-17 18:30:00,
2013-04-17 14:35:00,79.6,58.7,29.91,WNW,293,0.4,5.4,49,0.00,,,0.00,WUHU216HW,2013-04-17 18:35:00,
2013-04-17 14:40:00,80.5,59.0,29.91,NNE,23,2.2,2.5,48,0.00,,,0.00,WUHU216HW,2013-04-17 18:40:00,
2013-04-17 14:45:00,80.8,59.2,29.91,NE,45,1.1,2.5,48,0.00,,,0.00,WUHU216HW,2013-04-17 18:45:00,
2013-04-17 14:50:00,81.0,58.1,29.91,WSW,248,2.0,4.0,46,0.00,,,0.00,WUHU216HW,2013-04-17 18:50:00,
2013-04-17 14:55:00,81.4,60.3,29.90,SSW,203,2.0,4.0,49,0.00,,,0.00,WUHU216HW,2013-04-17 18:55:00,
2013-04-17 15:00:00,82.1,60.4,29.90,SSW,203,4.7,4.7,48,0.00,,,0.00,WUHU216HW,2013-04-17 19:00:00,
2013-04-17 15:05:00,82.4,60.1,29.90,SW,225,4.7,4.9,47,0.00,,,0.00,WUHU216HW,2013-04-17 19:05:00,
2013-04-17 15:10:00,82.4,60.7,29.90,SSW,203,3.8,4.9,48,0.00,,,0.00,WUHU216HW,2013-04-17 19:10:00,
2013-04-17 15:15:00,81.7,60.0,29.90,SSW,203,2.2,4.7,48,0.00,,,0.00,WUHU216HW,2013-04-17 19:15:00,
2013-04-17 15:20:00,81.4,59.8,29.89,SW,225,2.0,3.8,48,0.00,,,0.00,WUHU216HW,2013-04-17 19:20:00,
2013-04-17 15:25:00,81.0,59.4,29.89,SSW,203,1.8,2.5,48,0.00,,,0.00,WUHU216HW,2013-04-17 19:25:00,
2013-04-17 15:30:00,81.2,59.0,29.89,WNW,293,0.4,3.1,47,0.00,,,0.00,WUHU216HW,2013-04-17 19:30:00,
2013-04-17 15:35:00,82.3,58.7,29.89,SW,225,2.5,3.1,45,0.00,,,0.00,WUHU216HW,2013-04-17 19:35:00,
2013-04-17 15:40:00,82.8,58.6,29.89,WSW,248,2.5,2.9,44,0.00,,,0.00,WUHU216HW,2013-04-17 19:40:00,
2013-04-17 15:45:00,82.6,58.4,29.89,SW,225,2.5,2.9,44,0.00,,,0.00,WUHU216HW,2013-04-17 19:45:00,
2013-04-17 15:50:00,82.6,59.1,29.89,SW,225,1.8,2.9,45,0.00,,,0.00,WUHU216HW,2013-04-17 19:50:00,
2013-04-17 15:55:00,81.9,59.0,29.89,SW,225,1.6,2.9,46,0.00,,,0.00,WUHU216HW,2013-04-17 19:55:00,
2013-04-17 16:00:00,81.4,59.1,29.88,WSW,248,0.4,2.5,47,0.00,,,0.00,WUHU216HW,2013-04-17 20:00:00,
2013-04-17 16:05:00,81.5,59.9,29.88,SW,225,0.0,2.5,48,0.00,,,0.00,WUHU216HW,2013-04-17 20:05:00,
2013-04-17 16:10:00,81.2,59.6,29.89,SW,225,2.5,3.6,48,0.00,,,0.00,WUHU216HW,2013-04-17 20:10:00,
2013-04-17 16:15:00,79.9,59.0,29.89,SSW,203,0.0,3.6,49,0.00,,,0.00,WUHU216HW,2013-04-17 20:15:00,
2013-04-17 16:20:00,79.2,59.1,29.89,South,180,1.1,2.9,50,0.00,,,0.00,WUHU216HW,2013-04-17 20:20:00,
2013-04-17 16:25:00,77.9,55.5,29.88,ENE,68,1.6,2.9,46,0.00,,,0.00,WUHU216HW,2013-04-17 20:25:00,
2013-04-17 16:30:00,77.2,54.2,29.88,NE,45,1.3,2.5,45,0.00,,,0.00,WUHU216HW,2013-04-17 20:30:00,
2013-04-17 16:35:00,76.1,53.8,29.89,NNW,338,2.2,4.3,46,0.00,,,0.00,WUHU216HW,2013-04-17 20:35:00,
2013-04-17 16:40:00,73.6,56.9,29.89,NE,45,7.4,8.1,56,0.00,,,0.00,WUHU216HW,2013-04-17 20:40:00,
2013-04-17 16:45:00,70.6,58.2,29.90,NNE,23,5.6,9.2,65,0.00,,,0.00,WUHU216HW,2013-04-17 20:45:00,
2013-04-17 16:50:00,68.4,59.8,29.91,WNW,293,1.1,9.2,74,0.01,,,0.01,WUHU216HW,2013-04-17 20:50:00,
2013-04-17 16:55:00,66.8,60.5,29.91,NNE,23,3.1,5.6,80,0.02,,,0.02,WUHU216HW,2013-04-17 20:55:00,
2013-04-17 17:00:00,65.9,60.2,29.91,North,0,0.7,7.6,82,0.03,,,0.04,WUHU216HW,2013-04-17 21:00:00,
2013-04-17 17:05:00,65.5,58.9,29.92,NW,315,0.2,7.6,79,0.03,,,0.04,WUHU216HW,2013-04-17 21:05:00,
2013-04-17 17:10:00,65.7,58.7,29.92,SW,225,1.1,2.2,78,0.05,,,0.06,WUHU216HW,2013-04-17 21:10:00,
2013-04-17 17:15:00,65.9,59.6,29.91,South,180,5.6,5.6,80,0.06,,,0.06,WUHU216HW,2013-04-17 21:15:00,
2013-04-17 17:20:00,65.9,59.2,29.91,NNW,338,2.2,5.6,79,0.07,,,0.08,WUHU216HW,2013-04-17 21:20:00,
2013-04-17 17:25:00,65.7,59.1,29.91,WNW,293,2.5,5.1,79,0.09,,,0.10,WUHU216HW,2013-04-17 21:25:00,
2013-04-17 17:30:00,65.7,59.1,29.91,South,180,2.5,4.3,79,0.10,,,0.11,WUHU216HW,2013-04-17 21:30:00,
2013-04-17 17:35:00,65.5,59.2,29.91,South,180,2.7,4.3,80,0.11,,,0.11,WUHU216HW,2013-04-17 21:35:00,
2013-04-17 17:40:00,65.2,58.9,29.91,NNE,23,1.6,3.6,80,0.11,,,0.11,WUHU216HW,2013-04-17 21:40:00,
2013-04-17 17:45:00,64.8,58.5,29.91,SW,225,3.1,11.2,80,0.10,,,0.11,WUHU216HW,2013-04-17 21:45:00,
2013-04-17 17:50:00,64.8,58.5,29.90,SE,135,2.9,11.2,80,0.10,,,0.11,WUHU216HW,2013-04-17 21:50:00,
2013-04-17 17:55:00,64.4,58.1,29.90,SW,225,1.6,4.5,80,0.09,,,0.11,WUHU216HW,2013-04-17 21:55:00,
2013-04-17 18:00:00,64.4,58.1,29.91,SW,225,1.8,5.4,80,0.09,,,0.13,WUHU216HW,2013-04-17 22:00:00,
2013-04-17 18:05:00,64.3,58.0,29.91,SW,225,2.2,5.4,80,0.08,,,0.13,WUHU216HW,2013-04-17 22:05:00,
2013-04-17 18:10:00,64.1,57.8,29.91,SSW,203,0.9,5.1,80,0.08,,,0.13,WUHU216HW,2013-04-17 22:10:00,
2013-04-17 18:15:00,63.9,57.6,29.92,SSW,203,2.9,5.1,80,0.08,,,0.15,WUHU216HW,2013-04-17 22:15:00,
2013-04-17 18:20:00,63.7,57.4,29.91,SW,225,0.2,4.5,80,0.07,,,0.15,WUHU216HW,2013-04-17 22:20:00,
2013-04-17 18:25:00,63.5,57.6,29.91,SW,225,1.1,5.1,81,0.07,,,0.17,WUHU216HW,2013-04-17 22:25:00,
2013-04-17 18:30:00,63.4,57.4,29.92,South,180,1.8,5.1,81,0.06,,,0.18,WUHU216HW,2013-04-17 22:30:00,
2013-04-17 18:35:00,63.2,57.3,29.92,SW,225,0.7,3.4,81,0.08,,,0.20,WUHU216HW,2013-04-17 22:35:00,
2013-04-17 18:40:00,63.0,57.4,29.91,SW,225,1.3,2.0,82,0.09,,,0.21,WUHU216HW,2013-04-17 22:40:00,
2013-04-17 18:45:00,62.6,57.7,29.92,SSW,203,1.8,1.8,84,0.09,,,0.21,WUHU216HW,2013-04-17 22:45:00,
2013-04-17 18:50:00,62.5,58.2,29.92,SSW,203,1.3,2.7,86,0.09,,,0.21,WUHU216HW,2013-04-17 22:50:00,
2013-04-17 18:55:00,62.5,57.9,29.92,SW,225,0.2,2.7,85,0.09,,,0.21,WUHU216HW,2013-04-17 22:55:00,
2013-04-17 19:00:00,62.3,58.1,29.91,NE,45,0.7,1.3,86,0.09,,,0.22,WUHU216HW,2013-04-17 23:00:00,
2013-04-17 19:05:00,62.3,58.1,29.92,SW,225,2.0,2.5,86,0.08,,,0.22,WUHU216HW,2013-04-17 23:05:00,
2013-04-17 19:10:00,62.3,57.7,29.93,SSW,203,0.2,3.4,85,0.08,,,0.22,WUHU216HW,2013-04-17 23:10:00,
2013-04-17 19:15:00,62.3,57.7,29.92,WNW,293,0.0,3.4,85,0.07,,,0.22,WUHU216HW,2013-04-17 23:15:00,
2013-04-17 19:20:00,62.1,57.5,29.92,NNE,23,0.0,0.9,85,0.05,,,0.22,WUHU216HW,2013-04-17 23:20:00,
2013-04-17 19:25:00,61.9,57.1,29.92,WNW,293,0.0,1.1,84,0.04,,,0.22,WUHU216HW,2013-04-17 23:25:00,
2013-04-17 19:30:00,61.9,57.3,29.92,NE,45,0.0,1.1,85,0.03,,,0.22,WUHU216HW,2013-04-17 23:30:00,
2013-04-17 19:35:00,61.7,57.2,29.93,West,270,0.0,1.1,85,0.02,,,0.22,WUHU216HW,2013-04-17 23:35:00,
2013-04-17 19:40:00,61.7,57.5,29.93,NE,45,1.1,2.0,86,0.01,,,0.22,WUHU216HW,2013-04-17 23:40:00,
2013-04-17 19:45:00,61.6,57.1,29.92,NNE,23,0.7,2.0,85,0.01,,,0.22,WUHU216HW,2013-04-17 23:45:00,
2013-04-17 19:50:00,61.6,57.1,29.92,South,180,1.1,1.6,85,0.02,,,0.23,WUHU216HW,2013-04-17 23:50:00,
2013-04-17 19:55:00,61.7,56.9,29.92,SSW,203,1.8,1.8,84,0.02,,,0.23,WUHU216HW,2013-04-17 23:55:00,
2013-04-17 20:00:00,61.7,56.9,29.93,SW,225,2.5,2.5,84,0.02,,,0.24,WUHU216HW,2013-04-18 00:00:00,
2013-04-17 20:05:00,61.7,56.9,29.93,SW,225,0.0,2.9,84,0.03,,,0.25,WUHU216HW,2013-04-18 00:05:00,
2013-04-17 20:10:00,61.6,56.7,29.94,SW,225,1.1,2.9,84,0.04,,,0.26,WUHU216HW,2013-04-18 00:10:00,
2013-04-17 20:15:00,61.6,57.1,29.94,NNE,23,0.7,2.5,85,0.06,,,0.28,WUHU216HW,2013-04-18 00:15:00,
2013-04-17 20:20:00,61.4,56.9,29.94,SSW,203,0.0,2.5,85,0.08,,,0.30,WUHU216HW,2013-04-18 00:20:00,
2013-04-17 20:25:00,61.2,56.7,29.93,SSW,203,0.0,1.8,85,0.10,,,0.32,WUHU216HW,2013-04-18 00:25:00,
2013-04-17 20:30:00,61.2,56.7,29.94,SW,225,0.0,1.6,85,0.11,,,0.33,WUHU216HW,2013-04-18 00:30:00,
2013-04-17 20:35:00,61.2,56.7,29.94,SW,225,0.2,1.6,85,0.12,,,0.34,WUHU216HW,2013-04-18 00:35:00,
2013-04-17 20:40:00,60.8,57.0,29.94,North,0,0.0,0.7,87,0.12,,,0.34,WUHU216HW,2013-04-18 00:40:00,
2013-04-17 20:45:00,60.7,57.2,29.94,NE,45,0.9,1.1,88,0.14,,,0.36,WUHU216HW,2013-04-18 00:45:00,
2013-04-17 20:50:00,60.5,57.0,29.95,ENE,68,0.0,1.1,88,0.15,,,0.38,WUHU216HW,2013-04-18 00:50:00,
2013-04-17 20:55:00,60.5,57.0,29.94,ENE,68,0.0,0.9,88,0.16,,,0.39,WUHU216HW,2013-04-18 00:55:00,
2013-04-17 21:00:00,60.5,56.6,29.94,SSE,158,0.9,0.9,87,0.16,,,0.41,WUHU216HW,2013-04-18 01:00:00,
2013-04-17 21:05:00,60.5,57.0,29.93,West,270,0.2,1.1,88,0.16,,,0.42,WUHU216HW,2013-04-18 01:05:00,
2013-04-17 21:10:00,60.5,57.0,29.93,SW,225,1.1,1.8,88,0.16,,,0.43,WUHU216HW,2013-04-18 01:10:00,
2013-04-17 21:15:00,60.3,57.1,29.93,South,180,1.1,2.2,89,0.15,,,0.44,WUHU216HW,2013-04-18 01:15:00,
2013-04-17 21:20:00,60.3,57.1,29.93,SW,225,0.2,2.2,89,0.14,,,0.45,WUHU216HW,2013-04-18 01:20:00,
2013-04-17 21:25:00,60.3,57.4,29.93,WSW,248,0.0,1.8,90,0.13,,,0.45,WUHU216HW,2013-04-18 01:25:00,
2013-04-17 21:30:00,60.1,57.2,29.93,West,270,0.0,1.3,90,0.13,,,0.46,WUHU216HW,2013-04-18 01:30:00,
2013-04-17 21:35:00,60.1,57.2,29.93,North,0,0.0,1.3,90,0.14,,,0.48,WUHU216HW,2013-04-18 01:35:00,
2013-04-17 21:40:00,60.1,57.2,29.93,North,0,0.4,0.4,90,0.13,,,0.49,WUHU216HW,2013-04-18 01:40:00,
2013-04-17 21:45:00,60.1,57.2,29.93,WSW,248,0.0,0.4,90,0.12,,,0.49,WUHU216HW,2013-04-18 01:45:00,
2013-04-17 21:50:00,60.1,57.5,29.93,NNE,23,0.9,1.6,91,0.11,,,0.49,WUHU216HW,2013-04-18 01:50:00,
2013-04-17 21:55:00,60.1,57.2,29.94,NNE,23,0.0,1.6,90,0.09,,,0.49,WUHU216HW,2013-04-18 01:55:00,
2013-04-17 22:00:00,59.9,57.3,29.94,NNW,338,0.0,0.9,91,0.07,,,0.49,WUHU216HW,2013-04-18 02:00:00,
2013-04-17 22:05:00,60.1,58.2,29.94,NE,45,2.9,2.9,93,0.07,,,0.50,WUHU216HW,2013-04-18 02:05:00,
2013-04-17 22:10:00,60.1,58.2,29.94,NE,45,0.9,3.4,93,0.07,,,0.50,WUHU216HW,2013-04-18 02:10:00,
2013-04-17 22:15:00,60.1,58.2,29.93,South,180,0.4,3.4,93,0.06,,,0.50,WUHU216HW,2013-04-18 02:15:00,
2013-04-17 22:20:00,60.1,57.8,29.93,SSW,203,0.0,1.8,92,0.05,,,0.50,WUHU216HW,2013-04-18 02:20:00,
2013-04-17 22:25:00,60.1,57.8,29.92,SSW,203,0.0,1.1,92,0.05,,,0.51,WUHU216HW,2013-04-18 02:25:00,
2013-04-17 22:30:00,60.1,57.8,29.92,SSW,203,0.4,1.8,92,0.04,,,0.51,WUHU216HW,2013-04-18 02:30:00,
2013-04-17 22:35:00,59.9,57.3,29.91,SSW,203,0.2,1.8,91,0.03,,,0.51,WUHU216HW,2013-04-18 02:35:00,
2013-04-17 22:40:00,59.9,57.3,29.91,SSW,203,0.2,1.1,91,0.02,,,0.51,WUHU216HW,2013-04-18 02:40:00,
2013-04-17 22:45:00,59.9,57.3,29.91,SSW,203,0.0,0.9,91,0.02,,,0.51,WUHU216HW,2013-04-18 02:45:00,
2013-04-17 22:50:00,60.1,57.5,29.90,SW,225,0.0,0.9,91,0.02,,,0.51,WUHU216HW,2013-04-18 02:50:00,
2013-04-17 22:55:00,60.1,57.8,29.90,SSW,203,0.7,0.7,92,0.02,,,0.51,WUHU216HW,2013-04-18 02:55:00,
2013-04-17 23:00:00,60.1,57.8,29.89,NNW,338,0.0,1.3,92,0.01,,,0.51,WUHU216HW,2013-04-18 03:00:00,
2013-04-17 23:05:00,59.9,57.6,29.89,SW,225,0.2,1.3,92,0.01,,,0.51,WUHU216HW,2013-04-18 03:05:00,
2013-04-17 23:10:00,59.9,57.6,29.89,SSW,203,0.4,0.7,92,0.01,,,0.51,WUHU216HW,2013-04-18 03:10:00,
2013-04-17 23:15:00,59.9,57.6,29.88,SSW,203,0.2,0.7,92,0.01,,,0.51,WUHU216HW,2013-04-18 03:15:00,
2013-04-17 23:20:00,59.8,57.4,29.87,SW,225,0.9,1.1,92,0.00,,,0.51,WUHU216HW,2013-04-18 03:20:00,
2013-04-17 23:25:00,59.8,57.4,29.87,SSW,203,0.4,1.6,92,0.01,,,0.52,WUHU216HW,2013-04-18 03:25:00,
2013-04-17 23:30:00,59.8,57.4,29.86,South,180,1.3,1.6,92,0.01,,,0.52,WUHU216HW,2013-04-18 03:30:00,
2013-04-17 23:35:00,59.8,57.4,29.85,NW,315,0.7,2.2,92,0.01,,,0.52,WUHU216HW,2013-04-18 03:35:00,
2013-04-17 23:40:00,59.6,57.0,29.84,ENE,68,0.2,2.5,91,0.01,,,0.52,WUHU216HW,2013-04-18 03:40:00,
2013-04-17 23:45:00,59.8,56.9,29.84,ENE,68,0.0,2.5,90,0.01,,,0.52,WUHU216HW,2013-04-18 03:45:00,
2013-04-17 23:50:00,59.8,56.9,29.85,WNW,293,1.3,1.8,90,0.01,,,0.52,WUHU216HW,2013-04-18 03:50:00,
2013-04-17 23:55:00,59.8,57.2,29.84,NE,45,2.5,4.0,91,0.01,,,0.52,WUHU216HW,2013-04-18 03:55:00,